| time (UTC) | temp F | wind direction | speed MPH | gust MPH | rain 1hr in | rain 24hr in | rain mn in | humidity % | barometer mb |
| 20260503183951 | 74 | 307 | 5.0 | 6.0 | 0.00 | 0.00 | 0.00 | 42 | 1020.9 |
| 20260503183448 | 73 | 98 | 2.0 | 3.0 | 0.00 | 0.00 | 0.00 | 43 | 1021.1 |
| 20260503182944 | 72 | 341 | 3.0 | 3.0 | 0.00 | 0.00 | 0.00 | 45 | 1021.0 |
| 20260503182443 | 73 | 325 | 4.0 | 5.0 | 0.00 | 0.00 | 0.00 | 44 | 1021.0 |
| 20260503181941 | 73 | 336 | 5.0 | 5.0 | 0.00 | 0.00 | 0.00 | 42 | 1021.1 |
| 20260503181437 | 73 | 45 | 2.0 | 3.0 | 0.00 | 0.00 | 0.00 | 46 | 1021.2 |
| 20260503180933 | 74 | 96 | 0.0 | 0.0 | 0.00 | 0.00 | 0.00 | 45 | 1021.2 |
| 20260503180432 | 73 | 18 | 6.0 | 7.0 | 0.00 | 0.00 | 0.00 | 42 | 1021.1 |
| 20260503175928 | 73 | 336 | 1.0 | 2.0 | 0.00 | 0.00 | 0.00 | 45 | 1021.1 |
| 20260503175426 | 72 | 83 | 2.0 | 3.0 | 0.00 | 0.00 | 0.00 | 43 | 1021.0 |
| 20260503174922 | 72 | 335 | 3.0 | 5.0 | 0.00 | 0.00 | 0.00 | 44 | 1021.3 |
| 20260503174421 | 72 | 101 | 2.0 | 2.0 | 0.00 | 0.00 | 0.00 | 45 | 1021.5 |
| 20260503173920 | 72 | 319 | 2.0 | 2.0 | 0.00 | 0.00 | 0.00 | 43 | 1021.2 |
| 20260503173417 | 72 | 331 | 3.0 | 5.0 | 0.00 | 0.00 | 0.00 | 44 | 1021.3 |
| 20260503172914 | 72 | 328 | 4.0 | 5.0 | 0.00 | 0.00 | 0.00 | 43 | 1021.4 |
| 20260503172411 | 73 | 340 | 4.0 | 6.0 | 0.00 | 0.00 | 0.00 | 44 | 1021.7 |
| 20260503171907 | 72 | 341 | 2.0 | 3.0 | 0.00 | 0.00 | 0.00 | 45 | 1021.7 |
| 20260503171404 | 74 | 83 | 0.0 | 1.0 | 0.00 | 0.00 | 0.00 | 46 | 1021.9 |
| 20260503170902 | 73 | 56 | 0.0 | 0.0 | 0.00 | 0.00 | 0.00 | 49 | 1021.6 |
| 20260503170358 | 73 | 320 | 5.0 | 8.0 | 0.00 | 0.00 | 0.00 | 44 | 1022.0 |
| 20260503150750 | 70 | 64 | 2.0 | 2.0 | 0.00 | 0.00 | 0.00 | 45 | 1022.8 |
| 20260503150246 | 69 | 32 | 2.0 | 3.0 | 0.00 | 0.00 | 0.00 | 50 | 1022.7 |
| 20260503140211 | 66 | 94 | 1.0 | 1.0 | 0.00 | 0.00 | 0.00 | 63 | 1022.2 |
| 20260503131140 | 60 | 17 | 1.0 | 2.0 | 0.00 | 0.00 | 0.00 | 73 | 1021.8 |
| 20260503130637 | 60 | 70 | 0.0 | 0.0 | 0.00 | 0.00 | 0.00 | 82 | 1021.8 |
| 20260503130135 | 60 | 70 | 0.0 | 0.0 | 0.00 | 0.00 | 0.00 | 81 | 1021.7 |
| 20260503110527 | 45 | 81 | 0.0 | 0.0 | 0.00 | 0.00 | 0.00 | 99 | 1020.4 |
| 20260503090414 | 46 | 70 | 0.0 | 0.0 | 0.00 | 0.00 | 0.00 | 99 | 1019.6 |
| 20260503081341 | 47 | 69 | 0.0 | 0.0 | 0.00 | 0.00 | 0.00 | 97 | 1019.4 |
| 20260503080837 | 47 | 70 | 0.0 | 0.0 | 0.00 | 0.00 | 0.00 | 97 | 1019.1 |
| 20260503080335 | 47 | 62 | 0.0 | 0.0 | 0.00 | 0.00 | 0.00 | 97 | 1019.4 |
| 20260503072811 | 48 | 81 | 0.0 | 0.0 | 0.00 | 0.00 | 0.00 | 98 | 1018.9 |
| 20260503072308 | 49 | 91 | 0.0 | 0.0 | 0.00 | 0.00 | 0.00 | 98 | 1019.0 |
| 20260503071804 | 49 | 62 | 0.0 | 0.0 | 0.00 | 0.00 | 0.00 | 98 | 1019.1 |
| 20260503071302 | 49 | 56 | 0.0 | 0.0 | 0.00 | 0.00 | 0.00 | 98 | 1019.0 |
| 20260503070758 | 49 | 61 | 0.0 | 0.0 | 0.00 | 0.00 | 0.00 | 98 | 1018.8 |
| 20260503070256 | 49 | 61 | 0.0 | 0.0 | 0.00 | 0.00 | 0.00 | 97 | 1018.8 |
| 20260503060221 | 50 | 49 | 0.0 | 0.0 | 0.00 | 0.00 | 0.00 | 95 | 1018.9 |
| 20260503054707 | 50 | 42 | 0.0 | 0.0 | 0.00 | 0.00 | 0.00 | 94 | 1019.1 |
| 20260503054205 | 50 | 61 | 0.0 | 1.0 | 0.00 | 0.00 | 0.00 | 93 | 1019.1 |
| 20260503053703 | 50 | 54 | 0.0 | 0.0 | 0.00 | 0.00 | 0.00 | 93 | 1019.0 |
| 20260503053201 | 51 | 57 | 0.0 | 0.0 | 0.00 | 0.00 | 0.00 | 93 | 1019.3 |
| 20260503052657 | 51 | 57 | 0.0 | 0.0 | 0.00 | 0.00 | 0.00 | 93 | 1019.1 |
| 20260503052154 | 51 | 55 | 0.0 | 0.0 | 0.00 | 0.00 | 0.00 | 93 | 1019.3 |
| 20260503051649 | 51 | 56 | 0.0 | 0.0 | 0.00 | 0.00 | 0.00 | 92 | 1018.9 |
| 20260503051147 | 51 | 55 | 0.0 | 0.0 | 0.00 | 0.00 | 0.00 | 92 | 1019.1 |
| 20260503050643 | 51 | 51 | 0.0 | 0.0 | 0.00 | 0.00 | 0.00 | 92 | 1019.0 |
| 20260503050140 | 51 | 49 | 0.0 | 0.0 | 0.00 | 0.00 | 0.00 | 91 | 1019.2 |
| 20260503045637 | 51 | 50 | 0.0 | 0.0 | 0.00 | 0.37 | 0.37 | 91 | 1019.3 |
| 20260503045134 | 51 | 51 | 0.0 | 0.0 | 0.00 | 0.37 | 0.37 | 91 | 1019.3 |
| 20260503044631 | 51 | 51 | 0.0 | 0.0 | 0.00 | 0.37 | 0.37 | 91 | 1019.2 |
| 20260503044129 | 51 | 51 | 0.0 | 0.0 | 0.00 | 0.37 | 0.37 | 91 | 1019.2 |
| 20260503043625 | 51 | 51 | 0.0 | 0.0 | 0.00 | 0.37 | 0.37 | 91 | 1019.1 |
| 20260503043122 | 51 | 51 | 0.0 | 0.0 | 0.00 | 0.37 | 0.37 | 92 | 1019.3 |
| 20260503042619 | 51 | 51 | 0.0 | 0.0 | 0.00 | 0.37 | 0.37 | 92 | 1019.1 |
| 20260503042114 | 51 | 51 | 0.0 | 0.0 | 0.00 | 0.37 | 0.37 | 92 | 1019.2 |
| 20260503041611 | 51 | 49 | 0.0 | 0.0 | 0.00 | 0.37 | 0.37 | 91 | 1019.2 |
| 20260503041109 | 51 | 48 | 0.0 | 0.0 | 0.00 | 0.37 | 0.37 | 91 | 1019.1 |
| 20260503040606 | 52 | 58 | 0.0 | 0.0 | 0.00 | 0.37 | 0.37 | 91 | 1019.1 |
| 20260503040103 | 51 | 58 | 0.0 | 0.0 | 0.00 | 0.37 | 0.37 | 90 | 1019.0 |
| 20260503035600 | 52 | 58 | 0.0 | 0.0 | 0.00 | 0.37 | 0.37 | 89 | 1019.0 |
| 20260503035058 | 52 | 57 | 0.0 | 0.0 | 0.00 | 0.37 | 0.37 | 89 | 1019.1 |
| 20260503034555 | 52 | 58 | 0.0 | 0.0 | 0.00 | 0.37 | 0.37 | 89 | 1019.0 |
| 20260503034052 | 52 | 57 | 0.0 | 0.0 | 0.00 | 0.37 | 0.37 | 88 | 1019.0 |
| 20260503033549 | 53 | 57 | 0.0 | 0.0 | 0.00 | 0.37 | 0.37 | 89 | 1018.8 |
| 20260503033047 | 53 | 57 | 0.0 | 1.0 | 0.00 | 0.37 | 0.37 | 87 | 1019.0 |
| 20260503032545 | 53 | 58 | 0.0 | 0.0 | 0.00 | 0.37 | 0.37 | 87 | 1018.9 |
| 20260503032043 | 53 | 58 | 0.0 | 0.0 | 0.00 | 0.37 | 0.37 | 87 | 1019.0 |
| 20260503031540 | 53 | 57 | 0.0 | 0.0 | 0.00 | 0.37 | 0.37 | 86 | 1018.8 |
| 20260503031037 | 53 | 58 | 0.0 | 0.0 | 0.00 | 0.37 | 0.37 | 85 | 1018.8 |
| 20260503030533 | 53 | 58 | 0.0 | 0.0 | 0.00 | 0.37 | 0.37 | 86 | 1018.9 |
| 20260503030031 | 53 | 58 | 0.0 | 0.0 | 0.00 | 0.37 | 0.37 | 87 | 1019.0 |
| 20260503025527 | 53 | 58 | 0.0 | 0.0 | 0.00 | 0.37 | 0.37 | 86 | 1018.6 |
| 20260503025025 | 53 | 57 | 0.0 | 0.0 | 0.00 | 0.37 | 0.37 | 86 | 1018.6 |
| 20260503024521 | 53 | 58 | 0.0 | 0.0 | 0.00 | 0.37 | 0.37 | 86 | 1018.6 |
| 20260503024019 | 54 | 57 | 0.0 | 0.0 | 0.00 | 0.37 | 0.37 | 86 | 1018.7 |
| 20260503023515 | 54 | 58 | 0.0 | 0.0 | 0.00 | 0.37 | 0.37 | 86 | 1018.2 |
| 20260503023013 | 54 | 58 | 0.0 | 0.0 | 0.00 | 0.37 | 0.37 | 85 | 1018.3 |
| 20260503022508 | 54 | 58 | 0.0 | 0.0 | 0.00 | 0.37 | 0.37 | 83 | 1018.3 |
| 20260503022003 | 54 | 58 | 0.0 | 0.0 | 0.00 | 0.37 | 0.37 | 83 | 1018.2 |
| 20260503021500 | 54 | 58 | 0.0 | 0.0 | 0.00 | 0.37 | 0.37 | 84 | 1018.2 |
| 20260503020957 | 54 | 58 | 0.0 | 0.0 | 0.00 | 0.37 | 0.37 | 85 | 1018.2 |
| 20260503020455 | 55 | 58 | 0.0 | 0.0 | 0.00 | 0.37 | 0.37 | 86 | 1018.0 |
| 20260503015951 | 55 | 58 | 0.0 | 0.0 | 0.00 | 0.37 | 0.37 | 85 | 1017.8 |
| 20260503015448 | 55 | 58 | 0.0 | 0.0 | 0.00 | 0.37 | 0.37 | 85 | 1018.0 |
| 20260503014944 | 54 | 58 | 0.0 | 0.0 | 0.00 | 0.37 | 0.37 | 83 | 1018.1 |
| 20260503014441 | 55 | 58 | 0.0 | 0.0 | 0.00 | 0.37 | 0.37 | 84 | 1017.8 |
| 20260503013939 | 55 | 57 | 0.0 | 0.0 | 0.00 | 0.37 | 0.37 | 85 | 1017.8 |
| 20260503013436 | 55 | 58 | 0.0 | 0.0 | 0.00 | 0.37 | 0.37 | 85 | 1017.5 |
| 20260503012933 | 55 | 58 | 0.0 | 0.0 | 0.00 | 0.37 | 0.37 | 83 | 1017.5 |
| 20260503012431 | 55 | 58 | 0.0 | 0.0 | 0.00 | 0.37 | 0.37 | 83 | 1017.8 |
| 20260503011927 | 56 | 58 | 0.0 | 0.0 | 0.00 | 0.37 | 0.37 | 85 | 1017.6 |
| 20260503011424 | 56 | 58 | 0.0 | 0.0 | 0.00 | 0.37 | 0.37 | 85 | 1017.5 |
| 20260503010921 | 57 | 58 | 0.0 | 0.0 | 0.00 | 0.37 | 0.37 | 84 | 1017.4 |
| 20260503010418 | 57 | 58 | 0.0 | 0.0 | 0.00 | 0.37 | 0.37 | 82 | 1017.5 |
| 20260503005915 | 57 | 58 | 0.0 | 0.0 | 0.00 | 0.37 | 0.37 | 82 | 1017.4 |
| 20260503005412 | 58 | 58 | 0.0 | 0.0 | 0.00 | 0.37 | 0.37 | 80 | 1017.3 |
| 20260503004908 | 58 | 57 | 0.0 | 0.0 | 0.00 | 0.37 | 0.37 | 79 | 1017.1 |
| 20260503004406 | 59 | 18 | 0.0 | 0.0 | 0.00 | 0.37 | 0.37 | 77 | 1017.1 |
| 20260503003903 | 59 | 15 | 0.0 | 0.0 | 0.00 | 0.37 | 0.37 | 78 | 1017.1 |
| 20260503003400 | 60 | 344 | 0.0 | 0.0 | 0.00 | 0.37 | 0.37 | 76 | 1016.9 |
| 20260503002857 | 60 | 344 | 0.0 | 0.0 | 0.00 | 0.37 | 0.37 | 75 | 1016.8 |
| 20260503002354 | 61 | 343 | 0.0 | 0.0 | 0.00 | 0.37 | 0.37 | 74 | 1016.8 |
| 20260503001850 | 62 | 34 | 0.0 | 0.0 | 0.00 | 0.37 | 0.37 | 74 | 1016.7 |
| 20260503001347 | 63 | 26 | 0.0 | 0.0 | 0.00 | 0.37 | 0.37 | 69 | 1016.8 |
| 20260503000845 | 64 | 54 | 0.0 | 0.0 | 0.00 | 0.37 | 0.37 | 70 | 1016.6 |
| 20260503000342 | 66 | 22 | 0.0 | 0.0 | 0.00 | 0.37 | 0.37 | 63 | 1016.7 |
| 20260502235838 | 66 | 292 | 1.0 | 1.0 | 0.00 | 0.37 | 0.37 | 52 | 1016.5 |
| 20260502235336 | 67 | 39 | 0.0 | 0.0 | 0.00 | 0.37 | 0.37 | 51 | 1016.4 |
| 20260502234832 | 68 | 26 | 1.0 | 1.0 | 0.00 | 0.37 | 0.37 | 48 | 1016.5 |
| 20260502234329 | 68 | 328 | 1.0 | 1.0 | 0.00 | 0.37 | 0.37 | 47 | 1016.1 |
| 20260502233826 | 68 | 14 | 1.0 | 1.0 | 0.00 | 0.37 | 0.37 | 48 | 1016.1 |
| 20260502233322 | 68 | 356 | 4.0 | 6.0 | 0.00 | 0.37 | 0.37 | 45 | 1016.0 |
| 20260502232820 | 68 | 304 | 3.0 | 3.0 | 0.00 | 0.37 | 0.37 | 46 | 1015.9 |
| 20260502232316 | 68 | 7 | 1.0 | 2.0 | 0.00 | 0.37 | 0.37 | 46 | 1015.8 |
| 20260502231812 | 68 | 322 | 2.0 | 3.0 | 0.00 | 0.37 | 0.37 | 45 | 1015.7 |
| 20260502231310 | 69 | 350 | 2.0 | 3.0 | 0.00 | 0.37 | 0.37 | 45 | 1016.0 |
| 20260502230808 | 68 | 344 | 5.0 | 7.0 | 0.00 | 0.37 | 0.37 | 45 | 1015.9 |
| 20260502230300 | 69 | 56 | 1.0 | 1.0 | 0.00 | 0.37 | 0.37 | 46 | 1015.7 |
| 20260502225756 | 69 | 338 | 1.0 | 2.0 | 0.00 | 0.37 | 0.37 | 46 | 1015.7 |
| 20260502225253 | 69 | 30 | 3.0 | 5.0 | 0.00 | 0.37 | 0.37 | 45 | 1015.7 |
| 20260502224750 | 69 | 339 | 2.0 | 2.0 | 0.00 | 0.37 | 0.37 | 44 | 1015.6 |
| 20260502224246 | 70 | 329 | 3.0 | 3.0 | 0.00 | 0.37 | 0.37 | 43 | 1015.6 |
| 20260502223744 | 69 | 339 | 7.0 | 11.0 | 0.00 | 0.37 | 0.37 | 43 | 1015.7 |
| 20260502223242 | 70 | 31 | 4.0 | 6.0 | 0.00 | 0.37 | 0.37 | 43 | 1015.7 |
| 20260502222739 | 70 | 5 | 6.0 | 7.0 | 0.00 | 0.37 | 0.37 | 43 | 1015.6 |
| 20260502222236 | 70 | 29 | 3.0 | 3.0 | 0.00 | 0.37 | 0.37 | 43 | 1015.5 |
| 20260502221731 | 70 | 74 | 2.0 | 3.0 | 0.00 | 0.37 | 0.37 | 43 | 1015.6 |
| 20260502221229 | 70 | 40 | 2.0 | 3.0 | 0.00 | 0.37 | 0.37 | 44 | 1015.3 |
| 20260502220725 | 70 | 50 | 2.0 | 3.0 | 0.00 | 0.37 | 0.37 | 44 | 1015.2 |
| 20260502220221 | 70 | 2 | 4.0 | 5.0 | 0.00 | 0.37 | 0.37 | 44 | 1015.5 |
| 20260502215718 | 70 | 0 | 7.0 | 8.0 | 0.00 | 0.37 | 0.37 | 42 | 1015.3 |
| 20260502215215 | 70 | 104 | 3.0 | 5.0 | 0.00 | 0.37 | 0.37 | 43 | 1015.4 |
| 20260502214712 | 70 | 347 | 5.0 | 5.0 | 0.00 | 0.37 | 0.37 | 44 | 1015.3 |
| 20260502214210 | 70 | 78 | 3.0 | 3.0 | 0.00 | 0.37 | 0.37 | 43 | 1015.2 |
| 20260502213707 | 70 | 297 | 3.0 | 6.0 | 0.00 | 0.37 | 0.37 | 43 | 1015.2 |
| 20260502213204 | 70 | 29 | 2.0 | 3.0 | 0.00 | 0.37 | 0.37 | 44 | 1015.5 |
| 20260502212702 | 70 | 329 | 3.0 | 3.0 | 0.00 | 0.37 | 0.37 | 43 | 1015.4 |
| 20260502212200 | 70 | 134 | 4.0 | 8.0 | 0.00 | 0.37 | 0.37 | 44 | 1015.3 |
| 20260502211656 | 70 | 334 | 9.0 | 13.0 | 0.00 | 0.37 | 0.37 | 43 | 1015.5 |
| 20260502211153 | 69 | 80 | 4.0 | 6.0 | 0.00 | 0.37 | 0.37 | 44 | 1015.5 |
| 20260502210650 | 69 | 334 | 2.0 | 3.0 | 0.00 | 0.37 | 0.37 | 43 | 1015.6 |
| 20260502210147 | 69 | 343 | 3.0 | 6.0 | 0.00 | 0.37 | 0.37 | 45 | 1015.6 |
| 20260502205644 | 70 | 342 | 5.0 | 6.0 | 0.00 | 0.37 | 0.37 | 44 | 1015.5 |
| 20260502205141 | 69 | 43 | 2.0 | 3.0 | 0.00 | 0.37 | 0.37 | 42 | 1015.8 |
| 20260502204638 | 69 | 283 | 5.0 | 9.0 | 0.00 | 0.37 | 0.37 | 44 | 1015.8 |
| 20260502204135 | 70 | 6 | 3.0 | 3.0 | 0.00 | 0.37 | 0.37 | 42 | 1015.6 |
| 20260502203632 | 70 | 356 | 4.0 | 5.0 | 0.00 | 0.37 | 0.37 | 43 | 1015.7 |
| 20260502203131 | 70 | 329 | 8.0 | 9.0 | 0.00 | 0.37 | 0.37 | 41 | 1016.0 |
| 20260502202625 | 70 | 353 | 5.0 | 7.0 | 0.00 | 0.37 | 0.37 | 45 | 1015.8 |
| 20260502202123 | 70 | 350 | 3.0 | 7.0 | 0.00 | 0.37 | 0.37 | 43 | 1015.9 |
| 20260502201619 | 70 | 56 | 4.0 | 6.0 | 0.00 | 0.37 | 0.37 | 43 | 1015.9 |
| 20260502201116 | 69 | 341 | 6.0 | 7.0 | 0.00 | 0.37 | 0.37 | 44 | 1015.8 |
| 20260502200612 | 70 | 79 | 4.0 | 5.0 | 0.00 | 0.37 | 0.37 | 42 | 1016.0 |
| 20260502200110 | 70 | 355 | 9.0 | 10.0 | 0.00 | 0.37 | 0.37 | 43 | 1016.3 |
| 20260502195608 | 70 | 344 | 4.0 | 7.0 | 0.00 | 0.37 | 0.37 | 44 | 1016.2 |
| 20260502195103 | 70 | 339 | 3.0 | 3.0 | 0.00 | 0.37 | 0.37 | 42 | 1016.2 |
| 20260502194600 | 71 | 359 | 6.0 | 10.0 | 0.00 | 0.37 | 0.37 | 43 | 1016.3 |
| 20260502194056 | 70 | 57 | 2.0 | 2.0 | 0.00 | 0.37 | 0.37 | 43 | 1016.2 |
| 20260502193554 | 70 | 346 | 5.0 | 7.0 | 0.00 | 0.37 | 0.37 | 44 | 1016.3 |
| 20260502193050 | 71 | 24 | 2.0 | 3.0 | 0.00 | 0.37 | 0.37 | 44 | 1016.3 |
| 20260502192546 | 70 | 334 | 5.0 | 6.0 | 0.00 | 0.37 | 0.37 | 45 | 1016.1 |
| 20260502192043 | 70 | 335 | 4.0 | 7.0 | 0.00 | 0.37 | 0.37 | 43 | 1016.2 |
| 20260502191540 | 70 | 294 | 3.0 | 5.0 | 0.00 | 0.37 | 0.37 | 46 | 1016.2 |
| 20260502191038 | 69 | 67 | 2.0 | 3.0 | 0.00 | 0.37 | 0.37 | 44 | 1016.1 |
| 20260502190535 | 70 | 87 | 3.0 | 6.0 | 0.00 | 0.37 | 0.37 | 45 | 1016.2 |
| 20260502190032 | 69 | 12 | 4.0 | 5.0 | 0.00 | 0.37 | 0.37 | 45 | 1016.1 |
| 20260502185527 | 70 | 339 | 3.0 | 5.0 | 0.00 | 0.37 | 0.37 | 43 | 1016.4 |
| 20260502185024 | 69 | 80 | 5.0 | 7.0 | 0.00 | 0.37 | 0.37 | 46 | 1016.2 |
| 20260502184520 | 70 | 44 | 3.0 | 5.0 | 0.00 | 0.37 | 0.37 | 44 | 1016.4 |